Station PCLM4 - Portage Canal, MI Image indicating link to RSS feed of recent meteorological observations for station PCLM4


Conditions at PCLM4 as of
(4:40 pm EDT)
2040 GMT on 04/16/2024:
     

Click on the graph icon in the table below to see a time series plot of the last five days of that observation.

5-day plot - Wind Direction Wind Direction (WDIR):SSE ( 160 deg true )
5-day plot - Wind Speed Wind Speed (WSPD): 5.1 kts
5-day plot - Wind Gust Wind Gust (GST): 12.0 kts
5-day plot - Atmospheric Pressure Atmospheric Pressure (PRES):29.89 in
5-day plot - Air Temperature Air Temperature (ATMP): 53.8 °F
5-day plot - Wind Speed at 10 Meters Wind Speed at 10 meters (WSPD10M): 5.8 kts
5-day plot - Wind Speed at 20 Meters Wind Speed at 20 meters (WSPD20M): 5.8 kts
5-day plot -  Wind Speed, Wind Gust and Atmospheric Pressure Combined plot of Wind Speed, Gust, and Air Pressure
Previous observations
TIME
(EDT)
5-day plot - Wind Direction
WDIR
 
5-day plot - Wind Speed
WSPD
kts
5-day plot - Wind Gust
GST
kts
5-day plot - Wave Height
WVHT
ft
5-day plot - Dominant Wave Period
DPD
sec
5-day plot - Average Wave Period
APD
sec
5-day plot - Mean Wave Direction
MWD
 
5-day plot - Atmospheric Pressure
PRES
in
5-day plot - Pressure Tendency
PTDY
in
5-day plot - Air Temperature
ATMP
°F
5-day plot - Water Temperature
WTMP
°F
5-day plot - Dew Point
DEWP
°F
5-day plot - Salinity
SAL
psu
5-day plot - Visibility
VIS
nmi
5-day plot - Tide (above MLLW)
TIDE
ft
2024-04-16 04:30 pmESE 11.1 20.0----29.89- 51.3-----
2024-04-16 04:20 pm SE 8.9 15.9----29.90- 51.6-----
2024-04-16 04:10 pmESE 8.0 20.0----29.91- 51.6-----
2024-04-16 04:00 pm SE 13.0 21.0----29.93-0.05 51.1-----
2024-04-16 03:50 pm SE 8.9 17.1----29.96- 52.7-----
2024-04-16 03:40 pmESE 11.1 24.1----29.97- 51.1-----
2024-04-16 03:30 pmESE 14.0 20.0----29.97- 50.9-----
2024-04-16 03:20 pmSSE 8.9 15.0----29.97- 52.7-----
2024-04-16 03:10 pm E 9.9 17.1----29.98- 50.7-----
2024-04-16 03:00 pmESE 9.9 18.1----29.98-0.01 51.3-----
2024-04-16 02:50 pmESE 7.0 19.0----29.98- 51.1-----
2024-04-16 02:40 pmESE 11.1 21.0----29.99- 50.4-----
2024-04-16 02:30 pm E 6.0 19.0----30.00- 50.7-----
2024-04-16 02:20 pm E 9.9 20.0----30.01- 50.9-----
2024-04-16 02:10 pm E 8.9 19.0----30.01- 51.4-----
2024-04-16 02:00 pmESE 8.0 18.1----30.00-0.06 52.5-----
2024-04-16 01:50 pmESE 8.0 21.0----30.00- 52.0-----
2024-04-16 01:40 pm E 8.0 22.0----29.99- 52.2-----
2024-04-16 01:30 pmESE 7.0 21.0----29.99- 52.9-----
2024-04-16 01:20 pmESE 9.9 20.0----29.98- 52.7-----
2024-04-16 01:10 pm E 8.9 21.0----29.99-------
2024-04-16 01:00 pm SE 6.0 14.0----29.98-0.08 52.7-----
2024-04-16 12:50 pm E 8.9 18.1----30.00- 50.9-----
2024-04-16 12:40 pm E 9.9 20.0----29.99- 50.0-----
2024-04-16 12:30 pm E 9.9 21.0----30.00- 49.6-----
2024-04-16 12:20 pm E 15.0 21.0----30.01- 49.3-----
2024-04-16 12:10 pm E 9.9 22.0----30.00- 50.0-----
2024-04-16 12:00 pm E 9.9 20.0----29.99- 49.8-----
2024-04-16 11:50 am E 7.0 17.1----30.01- 49.3-----
2024-04-16 11:40 amESE 8.0 17.1----30.01-------
2024-04-16 11:30 am E 8.9 19.0----30.01- 50.4-----
2024-04-16 11:20 am E 6.0 12.0----30.04- 50.9-----
2024-04-16 11:10 amSSE 6.0 13.0----30.04- 50.7-----
2024-04-16 11:00 am SE 6.0 9.9----30.06+0.00 50.0-----
2024-04-16 10:50 am SE 2.9 11.1----30.05- 49.3-----
2024-04-16 10:40 am SE 6.0 9.9----30.06- 48.6-----
2024-04-16 10:30 am SE 5.1 9.9------ 48.4-----
2024-04-16 10:20 am SE 2.9 9.9----30.06- 48.0-----
2024-04-16 10:10 am SE 4.1 6.0------ 48.9-----
2024-04-16 10:00 amSSE 2.9 6.0----30.06+0.07 48.7-----
2024-04-16 09:50 amSSE 4.1 7.0----30.06- 48.4-----
2024-04-16 09:40 am S 1.9 6.0------ 48.0-----
2024-04-16 09:30 am SE 4.1 7.0----30.06- 46.9-----
2024-04-16 09:20 amESE 2.9 8.0------ 46.2-----
2024-04-16 09:10 amSSE 2.9 8.0------ 46.2-----
2024-04-16 09:00 am E 4.1 8.9------ 45.9-----
2024-04-16 08:50 am SE 2.9 12.0----30.05- 46.2-----
2024-04-16 08:40 amESE 6.0 12.0----30.04- 45.5-----
2024-04-16 08:30 amESE 7.0 12.0----30.05- 45.5-----
2024-04-16 08:20 amESE 2.9 8.9----30.05- 45.3-----
2024-04-16 08:10 amESE 5.1 8.0----30.05- 44.6-----
2024-04-16 08:00 am E 4.1 7.0----30.06+0.06 45.3-----
2024-04-16 07:50 amENE 1.9 9.9----30.06- 44.8-----
2024-04-16 07:40 am E 2.9 9.9----30.04- 43.3-----
2024-04-16 07:30 am E 4.1-----30.02- 42.8-----
2024-04-16 07:20 am E 2.9 7.0----30.00- 42.3-----
2024-04-16 07:10 am E 4.1 7.0----30.00- 42.1-----
2024-04-16 07:00 am E 4.1 8.0----29.99-0.03 42.4-----
2024-04-16 06:50 am E 4.1 7.0----29.99- 42.3-----
2024-04-16 06:40 am E 2.9 7.0----29.98- 42.3-----
2024-04-16 06:30 amESE 4.1 6.0----29.98- 42.4-----
2024-04-16 06:20 am E 2.9 5.1----29.99- 41.5-----
2024-04-16 06:10 am E 4.1 7.0----29.99- 42.1-----
2024-04-16 06:00 am E 2.9 7.0----29.98-0.03 41.7-----
2024-04-16 05:50 am E------29.99- 41.4-----
2024-04-16 05:40 am E 2.9 6.0----30.00- 38.5-----
2024-04-16 05:30 am E 2.9 6.0----30.00- 38.7-----
2024-04-16 05:20 am E 4.1 7.0----30.00-------
2024-04-16 05:10 am E 4.1 7.0----30.00-------
2024-04-16 05:00 am E 4.1 7.0----30.00+0.01 39.7-----
2024-04-16 04:50 amENE 2.9 7.0----30.02- 38.7-----
2024-04-16 04:40 am E 4.1 6.0----30.01- 37.2-----
2024-04-16 04:30 amENE 1.9 5.1----30.02- 36.3-----
2024-04-16 04:20 am E 1.0 2.9----30.02- 34.0-----
2024-04-16 04:10 amENE------30.02- 34.7-----
2024-04-16 04:00 am- 0.0 1.9----30.02+0.03 34.7-----
2024-04-16 03:50 am- 0.0 1.9----30.02- 34.7-----
2024-04-16 03:40 am- 0.0 1.0----30.02- 35.2-----
2024-04-16 03:30 am- 0.0 1.0----30.01-------
2024-04-16 03:20 am- 0.0 1.9----30.01- 36.0-----
2024-04-16 03:10 am- 0.0 1.9----30.01- 36.1-----
2024-04-16 03:00 am- 0.0 1.0----30.01+0.04 35.4-----
2024-04-16 02:50 am- 0.0 1.0----30.00- 35.2-----
2024-04-16 02:40 am- 0.0 1.9----29.99- 35.1-----
2024-04-16 02:30 am- 0.0 1.9----29.99- 34.7-----
2024-04-16 02:20 amENE------29.99- 34.5-----
2024-04-16 02:10 amENE 1.0 1.0----29.99- 34.2-----
2024-04-16 02:00 am- 0.0 1.9----29.99+0.03 34.5-----
2024-04-16 01:50 amENE 1.9 1.9----29.99- 34.5-----
2024-04-16 01:40 am E 1.9 1.9----29.99- 34.5-----
2024-04-16 01:30 am E 1.0 1.9----29.99- 34.5-----
2024-04-16 01:20 am NE 1.9 2.9----29.99- 35.1-----
2024-04-16 01:10 amENE 1.9 1.9----29.99- 35.1-----
2024-04-16 01:00 amENE 1.0 1.9----29.99+0.03 34.9-----
2024-04-16 12:50 amENE 1.9 2.9----29.99- 35.1-----
2024-04-16 12:40 amENE 1.0 1.9----29.99- 35.4-----
2024-04-16 12:30 amENE 1.0 2.9----29.99- 35.6-----
2024-04-16 12:20 amENE 1.9 2.9----29.98- 36.0-----
2024-04-16 12:10 am E 1.9 4.1----29.98- 36.3-----
2024-04-16 12:00 amESE 1.9 4.1----29.97+0.02 36.3-----
2024-04-15 11:50 pm E 1.9 2.9----29.97- 36.1-----
2024-04-15 11:40 pm E 1.9 2.9----29.97- 36.1-----
2024-04-15 11:30 pm E 1.9 1.9----29.97- 36.1-----
2024-04-15 11:20 pmENE 1.0 1.9----29.97- 36.3-----
2024-04-15 11:10 pmENE------29.97- 36.5-----
2024-04-15 11:00 pm- 0.0 2.9----29.96+0.02 37.0-----
2024-04-15 10:50 pmENE 1.9 2.9----29.96- 37.0-----
2024-04-15 10:40 pm SE 1.9 5.1----29.96- 37.2-----
2024-04-15 10:30 pmENE 1.9 2.9----29.96- 37.9-----
2024-04-15 10:20 pm NE 1.9 1.9----29.96- 38.3-----
2024-04-15 10:10 pmENE 1.9 1.9----29.96- 38.5-----
2024-04-15 10:00 pmENE 1.0 1.9----29.96+0.01 38.8-----
2024-04-15 09:50 pmENE 1.9 1.9----29.97- 39.4-----
2024-04-15 09:40 pm- 0.0 1.9----29.97- 39.7-----
2024-04-15 09:30 pmNNE 1.9 1.9----29.96- 40.1-----
2024-04-15 09:20 pm- 0.0 1.9----29.96-------
2024-04-15 09:10 pm- 0.0 1.0----29.96- 41.2-----
2024-04-15 09:00 pm- 0.0 0.0----29.95-0.01 42.1-----
2024-04-15 08:50 pm- 0.0 1.0----29.96- 43.2-----
2024-04-15 08:40 pm- 0.0 1.9----29.96- 44.1-----
2024-04-15 08:30 pmNNW 1.0 2.9----29.95- 45.0-----
2024-04-15 08:20 pmNNW 1.0 2.9----29.95- 46.2-----
2024-04-15 08:10 pm NW 1.9 2.9----29.95- 47.5-----
2024-04-15 08:00 pm NW 1.9 2.9----29.94-0.02 48.4-----
2024-04-15 07:50 pmNNW 1.9 4.1----29.95- 48.6-----
2024-04-15 07:40 pm NW 1.9-----29.95- 48.2-----
2024-04-15 07:30 pm NW 1.9 4.1----29.95- 48.4-----
2024-04-15 07:20 pm NW 2.9 4.1----29.95- 48.6-----
2024-04-15 07:10 pm NW 2.9 5.1----29.95- 48.6-----
2024-04-15 07:00 pm NW 1.9 5.1----29.95-0.01 48.4-----
2024-04-15 06:50 pm NW 4.1 5.1----29.96- 47.7-----
2024-04-15 06:40 pm NW 2.9 4.1----29.96- 46.6-----
2024-04-15 06:30 pm NW 1.9 6.0----29.96- 46.8-----
2024-04-15 06:20 pm NW 2.9 7.0----29.96- 47.5-----
2024-04-15 06:10 pm NW 2.9 5.1----29.96- 47.5-----
2024-04-15 06:00 pm NW 2.9 4.1----29.96+0.01 46.9-----
2024-04-15 05:50 pm NW 2.9 6.0----29.96- 47.3-----
2024-04-15 05:40 pm NW 2.9-----29.96- 47.1-----
2024-04-15 05:30 pm NW 2.9 6.0----29.96- 46.9-----
2024-04-15 05:20 pm NW 4.1 6.0----29.96- 47.1-----
2024-04-15 05:10 pmNNW 4.1 6.0----29.96- 46.0-----
2024-04-15 05:00 pm NW------29.96+0.02 45.5-----
2024-04-15 04:50 pm NW------29.95- 45.1-----